Crane Lake, MN

6:27 PM CST on November 18, 2019 (GMT -0600)
Crane Lake

Weather History for KCDD - September, 2019

Change the Weather History Date:

Tuesday, September 17, 2019

  Actual Average Record
Temperature  
Mean Temperature 66 °F -  
Max Temperature 71 °F 63 °F 84 °F (1998)
Min Temperature 62 °F 44 °F 28 °F (2011)
Cooling Degree Days 2    
Growing Degree Days 16 (Base 50)    
Moisture  
Dew Point 64 °F    
Average Humidity 94    
Maximum Humidity 100    
Minimum Humidity 83    
Precipitation  
Precipitation 0.00 in - - ()
Sea Level Pressure  
Sea Level Pressure 29.93 in    
Wind  
Wind Speed 5 mph (SSE)    
Max Wind Speed 12 mph    
Max Gust Speed 22 mph    
Visibility 8 miles    
Events Rain , Thunderstorm    
Averages and records for this station are not official NWS values.
T = Trace of Precipitation, MM = Missing Value Source: NWS Daily Summary

Daily Weather History Graph

Daily Weather History Graph

Search for Another Location

Airport or City:

Astronomy

Sep. 17, 2019 Rise Set
Actual Time 6:49 AM CDT 7:18 PM CDT
Civil Twilight 6:18 AM CDT 7:49 PM CDT
Nautical Twilight 5:40 AM CDT 8:26 PM CDT
Astronomical Twilight 5:02 AM CDT 9:05 PM CDT
Moon 9:07 PM CDT (9/17) 10:06 AM CDT (9/17)
Length of Visible Light 13h 31m
Length of Day
12h 29m
Waning Gibbous, 89% of the Moon is Illuminated
Sep 17
Waning Gibbous
Sep 21
Last Quarter
Sep 28
New
Oct 5
First Quarter
Oct 13
Full

Hourly Weather History & Observations

Time (CDT) Temp. Dew Point Humidity Pressure Visibility Wind Dir Wind Speed Gust Speed Precip Events Conditions
12:04 AM 66.2 °F 62.6 °F 88% 29.95 in 10.0 mi South 4.6 mph - N/A   Clear
12:24 AM 66.2 °F 62.6 °F 88% 29.96 in 10.0 mi SSE 5.8 mph - N/A   Clear
12:44 AM 66.2 °F 62.6 °F 88% 29.96 in 10.0 mi South 6.9 mph - N/A   Clear
1:04 AM 64.4 °F 60.8 °F 88% 29.96 in 10.0 mi South 6.9 mph - N/A   Clear
1:24 AM 64.4 °F 60.8 °F 88% 29.96 in 10.0 mi South 5.8 mph - N/A   Clear
1:44 AM 64.4 °F 62.6 °F 94% 29.96 in 10.0 mi South 6.9 mph - N/A   Clear
2:04 AM 64.4 °F 62.6 °F 94% 29.96 in 10.0 mi South 5.8 mph - N/A   Clear
2:25 AM 64.4 °F 62.6 °F 94% 29.96 in 10.0 mi South 4.6 mph - N/A   Clear
2:44 AM 64.4 °F 62.6 °F 94% 29.96 in 10.0 mi South 5.8 mph - N/A   Clear
3:04 AM 64.4 °F 62.6 °F 94% 29.96 in 10.0 mi SSE 6.9 mph - N/A   Clear
3:24 AM 64.4 °F 62.6 °F 94% 29.96 in 10.0 mi SSE 4.6 mph - N/A   Clear
3:44 AM 64.4 °F 62.6 °F 94% 29.96 in 10.0 mi South 4.6 mph - N/A   Clear
4:04 AM 64.4 °F 62.6 °F 94% 29.96 in 10.0 mi South 4.6 mph - N/A   Clear
4:44 AM 64.4 °F 62.6 °F 94% 29.97 in 10.0 mi SSE 4.6 mph - N/A   Clear
5:04 AM 64.4 °F 62.6 °F 94% 29.97 in 10.0 mi SSE 3.5 mph - N/A   Clear
5:23 AM 62.6 °F 62.6 °F 100% 29.97 in 10.0 mi Calm Calm - N/A   Clear
5:44 AM 62.6 °F 62.6 °F 100% 29.97 in 10.0 mi SSE 3.5 mph - N/A   Clear
6:05 AM 62.6 °F 62.6 °F 100% 29.98 in 10.0 mi SSE 3.5 mph - N/A   Clear
6:24 AM 62.6 °F 62.6 °F 100% 29.98 in 10.0 mi SSE 3.5 mph - N/A   Clear
6:44 AM 62.6 °F 62.6 °F 100% 29.98 in 10.0 mi SSE 3.5 mph - N/A   Clear
7:04 AM 64.4 °F 62.6 °F 94% 29.99 in 10.0 mi South 3.5 mph - N/A   Clear
7:24 AM 64.4 °F 62.6 °F 94% 29.99 in 10.0 mi South 5.8 mph - N/A   Clear
7:44 AM 64.4 °F 64.4 °F 100% 29.99 in 10.0 mi Calm Calm - N/A   Clear
8:04 AM 66.2 °F 64.4 °F 94% 29.99 in 10.0 mi South 5.8 mph - N/A   Clear
8:25 AM 66.2 °F 64.4 °F 94% 29.98 in 10.0 mi South 6.9 mph - N/A   Clear
8:44 AM 66.2 °F 64.4 °F 94% 29.99 in 10.0 mi South 4.6 mph - N/A   Clear
9:04 AM 68.0 °F 64.4 °F 88% 29.98 in 10.0 mi South 9.2 mph - N/A   Clear
9:24 AM 68.0 °F 66.2 °F 94% 29.99 in 10.0 mi South 5.8 mph - N/A   Mostly Cloudy
10:04 AM 69.8 °F 66.2 °F 88% 29.99 in 10.0 mi South 6.9 mph - N/A   Overcast
10:25 AM 71.6 °F 66.2 °F 83% 29.99 in 10.0 mi South 6.9 mph - N/A   Overcast
10:44 AM 71.6 °F 66.2 °F 83% 29.99 in 10.0 mi South 5.8 mph - N/A   Mostly Cloudy
11:04 AM 69.8 °F 66.2 °F 88% 30.00 in 10.0 mi SSE 5.8 mph - N/A   Mostly Cloudy
11:24 AM 69.8 °F 66.2 °F 88% 30.00 in 10.0 mi SSE 4.6 mph - N/A Thunderstorm Scattered Clouds
11:44 AM 69.8 °F 64.4 °F 83% 29.99 in 10.0 mi South 11.5 mph 17.3 mph N/A Rain Rain
12:04 PM 68.0 °F 64.4 °F 88% 29.99 in 7.0 mi SSE 8.1 mph 16.1 mph N/A Rain Rain
12:24 PM 64.4 °F 62.6 °F 94% 29.99 in 10.0 mi South 9.2 mph - N/A Rain Light Rain
12:44 PM 64.4 °F 62.6 °F 94% 29.98 in 10.0 mi SSE 10.4 mph 17.3 mph N/A   Overcast
1:04 PM 64.4 °F 62.6 °F 94% 29.99 in 4.0 mi SSE 8.1 mph 21.9 mph N/A Rain Rain
1:24 PM 62.6 °F 62.6 °F 100% 29.97 in 1.2 mi ESE 3.5 mph - N/A Rain Heavy Rain
1:44 PM 62.6 °F 62.6 °F 100% 29.95 in 5.0 mi SSE 10.4 mph 17.3 mph N/A Rain , Thunderstorm Rain
2:04 PM 62.6 °F 62.6 °F 100% 29.97 in 1.5 mi SSE 5.8 mph - N/A Rain , Thunderstorm Heavy Thunderstorms and Rain
2:24 PM 62.6 °F 62.6 °F 100% 29.94 in 5.0 mi Calm Calm - N/A Thunderstorm Overcast
2:44 PM 62.6 °F 62.6 °F 100% 29.92 in 3.0 mi Calm Calm - N/A Rain , Thunderstorm Thunderstorms and Rain
3:04 PM 62.6 °F 62.6 °F 100% 29.91 in 5.0 mi SE 5.8 mph - N/A Rain , Thunderstorm Light Thunderstorms and Rain
3:23 PM 62.6 °F 62.6 °F 100% 29.92 in 7.0 mi Calm Calm - N/A Rain , Thunderstorm Rain
3:44 PM 64.4 °F 62.6 °F 94% 29.91 in 4.0 mi SSE 4.6 mph - N/A Thunderstorm Unknown
4:04 PM 62.6 °F 62.6 °F 100% 29.89 in 3.0 mi Calm Calm - N/A Rain , Thunderstorm Thunderstorms and Rain
4:24 PM 62.6 °F 62.6 °F 100% 29.89 in 5.0 mi Calm Calm - N/A Rain , Thunderstorm Light Thunderstorms and Rain
4:44 PM 64.4 °F 62.6 °F 94% 29.88 in 7.0 mi Calm Calm - N/A Rain Light Rain
5:04 PM 64.4 °F 62.6 °F 94% 29.88 in 10.0 mi Calm Calm - N/A Thunderstorm Overcast
5:24 PM 64.4 °F 62.6 °F 94% 29.89 in 7.0 mi Calm Calm - N/A   Overcast
5:44 PM 64.4 °F 64.4 °F 100% 29.88 in 4.0 mi Calm Calm - N/A   Overcast
6:04 PM 64.4 °F 64.4 °F 100% 29.87 in 4.0 mi Calm Calm - N/A   Overcast
6:23 PM 64.4 °F 64.4 °F 100% 29.86 in 7.0 mi South 5.8 mph - N/A   Overcast
6:44 PM 64.4 °F 64.4 °F 100% 29.84 in 10.0 mi Calm Calm - N/A   Overcast
7:04 PM 64.4 °F 64.4 °F 100% 29.84 in 5.0 mi Calm Calm - N/A   Mostly Cloudy
7:24 PM 64.4 °F 64.4 °F 100% 29.83 in 5.0 mi SSE 3.5 mph - N/A   Scattered Clouds
7:43 PM 64.4 °F 64.4 °F 100% 29.83 in 3.0 mi SE 3.5 mph - N/A   Clear
8:04 PM 64.4 °F 64.4 °F 100% 29.83 in 5.0 mi Calm Calm - N/A   Scattered Clouds
8:24 PM 64.4 °F 64.4 °F 100% 29.83 in 7.0 mi SSE 3.5 mph - N/A   Scattered Clouds
8:44 PM 66.2 °F 64.4 °F 94% 29.83 in 10.0 mi SSE 5.8 mph - N/A   Clear
9:03 PM 66.2 °F 66.2 °F 100% 29.83 in 10.0 mi SSE 5.8 mph - N/A   Clear
9:24 PM 68.0 °F 66.2 °F 94% 29.82 in 10.0 mi South 8.1 mph - N/A   Clear
9:43 PM 68.0 °F 66.2 °F 94% 29.82 in 10.0 mi South 6.9 mph - N/A   Clear
10:03 PM 68.0 °F 66.2 °F 94% 29.82 in 10.0 mi South 4.6 mph - N/A   Clear
10:23 PM 69.8 °F 66.2 °F 88% 29.82 in 10.0 mi South 6.9 mph - N/A   Clear
10:44 PM 69.8 °F 66.2 °F 88% 29.82 in 10.0 mi South 6.9 mph - N/A   Clear
11:04 PM 69.8 °F 66.2 °F 88% 29.82 in 10.0 mi SSE 3.5 mph - N/A   Clear
11:23 PM 69.8 °F 66.2 °F 88% 29.82 in 10.0 mi South 8.1 mph - N/A   Clear
11:44 PM 69.8 °F 66.2 °F 88% 29.81 in 10.0 mi South 6.9 mph - N/A   Clear